{"data":{"norad_id":68588,"epoch":"2026-05-25T04:00:03.998880Z","epoch_age_seconds":60577,"freshness":"FRESH","line1":"1 68588U 26072R   26145.16671295 -.00034773  00000+0 -44834-2 0  9997","line2":"2 68588  51.8981 294.9450 0000898 150.4127 211.8237 14.80603218  5425","mean_motion":14.80603218,"eccentricity":8.98e-5,"inclination_deg":51.8981,"raan_deg":294.945,"arg_perigee_deg":150.4127,"mean_anomaly_deg":211.8237,"bstar":-0.0044834,"rev_number":542,"period_min":97.257657047724,"perigee_km":626.79161607829,"apogee_km":628.04981424394,"semimajor_km":7005.5577151611,"source":"CELESTRAK","updated_at":"2026-05-25T13:38:07.951520Z"}}